{"data":{"norad_id":53864,"intl_designator":"2022-114AY","name":"STARLINK-4779","alt_names":[],"object_type":"PAYLOAD","status":"ACTIVE","operator":null,"country":"US","launch_date":"2022-09-19","launch_site_code":"AFETR","launch_vehicle":null,"mission":null,"orbit_class":"UNKNOWN","rcs_meters":null,"size_class":null,"mass_kg":null,"dimensions":null,"purposes":["comms"],"wikipedia_slug":null,"has_3d_model":false,"image_url":null,"decayed_at":null,"tle_current":{"epoch":"2026-09-20T07:50:43.426464Z","epoch_age_seconds":99028,"freshness":"FRESH","line1":"1 53864U 22114AY  26263.32689151  .00001016  00000+0  44517-4 0  9992","line2":"2 53864  53.1590 119.3120 0001251  95.3271 264.7873 15.31697736222645","mean_motion":15.31697736,"eccentricity":0.0001251,"inclination_deg":53.159,"raan_deg":119.312,"arg_perigee_deg":95.3271,"mean_anomaly_deg":264.7873,"bstar":4.4517e-5,"rev_number":22264,"period_min":94.013326921833,"perigee_km":469.88994874376,"apogee_km":471.60353945654,"semimajor_km":6848.8837441002,"source":"CELESTRAK","updated_at":"2026-09-21T09:00:33.025915Z"}}}